Terminal Aerodrome Forecast
Issued by NWS

Home | Current Version | Previous Version | Graphics & Text | Print | Product List | Glossary On
Versions: 1 2 3 4 5 6 7 8 9 10 11 12 13 14 15 16 17 18
000
FTUS43 KFGF 051914 AAA
TAFBJI
TAF AMD
KBJI 051914Z 0519/0618 09008KT P6SM OVC007
      TEMPO 0522/0523 4SM -SN OVC003
     FM052300 10009KT 3SM -SN OVC005
     FM060400 17008KT 3SM -SN OVC003
     FM060900 22011G19KT 5SM -SN BKN003
     FM061400 25011KT P6SM -SN BKN010=

USA.gov is the U.S. government's official web portal to all federal, state and local government web resources and services.